Regional Weather Roundup
Issued by NWS

Home | Current Version | Previous Version | Graphics & Text | Print | Product List | Glossary On
Versions: 1 2 3 4 5 6 7 8 9 10 11 12 13 14 15 16 17 18 19 20 21 22 23 24 25 26 27 28 29 30 31 32 33 34 35 36 37 38 39 40 41 42 43 44 45 46 47 48 49 50
000
ASUS43 KDTX 290210
RWRMI
MICHIGAN HOURLY REGIONAL WEATHER ROUNDUP
NATIONAL WEATHER SERVICE DETROIT/PONTIAC MI
1000 PM EDT SAT MAR 28 2015

NOTE: "FAIR" INDICATES FEW OR NO CLOUDS BELOW 12,000 FEET WITH NO
SIGNIFICANT WEATHER AND/OR OBSTRUCTION TO VISIBILITY.

MIZ047>049-052>055-059>063-066>070-074>076-081>083-290300-
SOUTHEAST LOWER MICHIGAN

CITY           SKY/WX    TMP DP  RH WIND       PRES   REMARKS
ADRIAN         CLEAR     28  10  46 CALM      30.30R
ALMA           CLEAR     29  11  46 W8        30.27R
ANN ARBOR      CLEAR     22  13  68 CALM      30.29R
BAD AXE        CLEAR     28  13  54 SW7       30.25S
DETROIT CITY   CLEAR     28  15  58 S5        30.30R
DETROIT        CLEAR     32   7  35 CALM      30.30R
FLINT          CLEAR     24  10  55 S5        30.28R
GROSSE ILE     CLEAR     27  21  80 CALM      30.29R
HILLSDALE      CLEAR     29   5  35 CALM      30.27S
HOWELL         CLEAR     26  10  50 CALM      30.27R

CITY           SKY/WX    TMP DP  RH WIND       PRES   REMARKS
JACKSON        CLEAR     26   7  44 S3        30.27S
LAMBERTVILLE   CLEAR     28  16  59 CALM      30.31R
LANSING        CLEAR     27   8  44 CALM      30.28R
LAPEER         NOT AVBL
MASON          CLEAR     26  15  63 S3        30.27S
MONROE         CLEAR     28  18  64 CALM      30.28S
MT. CLEMENS    CLEAR     25  19  78 SE6       30.27R
PONTIAC        CLEAR     27   8  44 CALM      30.26R
PORT HOPE        N/A     24  16  71 SE6       30.24R
PORT HURON     CLEAR     21  18  86 CALM      30.29R
TRI CITIES     CLEAR     31   9  39 S8        30.26R
YPSILANTI      CLEAR     30  15  53 VRB3      30.29R
$$
MIZ043>046-050>051-056>058-064>065-071>073-077>080-290300-
SOUTHWEST LOWER MICHIGAN

CITY           SKY/WX    TMP DP  RH WIND       PRES   REMARKS
BATTLE CREEK   CLEAR     27  11  51 W7        30.29R
BENTON HARBOR  CLEAR     21  11  65 CALM      30.31S
BIG RAPIDS       N/A     27  10  50 SW6       30.25R
COLDWATER      CLEAR     25  11  55 CALM      30.28S
HOLLAND        CLEAR     24  13  62 S5        30.31R
GRAND RAPIDS   CLEAR     24  10  55 W6        30.29R
KALAMAZOO      CLEAR     27  11  51 NW7       30.29R
MARSHALL       CLEAR     24   8  50 NW6       30.28R
MUSKEGON       CLEAR     23  11  60 CALM      30.29S
$$
MIZ016>042-290300-
NORTHERN LOWER MICHIGAN

CITY           SKY/WX    TMP DP  RH WIND       PRES   REMARKS
ALPENA         CLEAR     23  16  74 CALM      30.24R
BEAVER ISLAND  CLEAR     24  18  79 S5        30.21S
BELLAIRE       CLEAR     22  12  64 CALM      30.25R
CADILLAC       CLEAR     24   6  45 SW3       30.21S
CHARLEVOIX     CLEAR     24  10  53 SE3       30.25S
FRANKFORT      CLEAR     26  11  55 CALM      30.25R
GAYLORD        CLEAR     22   7  52 SW5       30.20R
GRAYLING       CLEAR     23   6  48 CALM      30.23R
HARBOR SPRINGS CLEAR     19  11  73 CALM      30.22S
HOUGHTON LAKE  CLEAR     26   7  44 NW5       30.22R
MANISTEE       CLEAR     27   9  46 CALM      30.26R
OSCODA         CLEAR     21  15  75 CALM      30.24R
PELLSTON         N/A     19   8  62 SE3       30.22S
TRAVERSE CITY  CLEAR     26   6  42 CALM      30.23S
$$
MIZ007>008-015-290300-
EASTERN UPPER MICHIGAN

CITY           SKY/WX    TMP DP  RH WIND       PRES   REMARKS
KINROSS        CLEAR     21  18  86 SW3       30.19F
MACKINAC ISLAN CLEAR     21  13  70 SW7       30.20F
NEWBERRY       CLEAR     20  17  88 S7        30.17S
S. S. MARIE    PTCLDY    22   9  57 SW7       30.18F
$$
MIZ004>006-011>014-085-290300-
CENTRAL UPPER MICHIGAN

CITY           SKY/WX    TMP DP  RH WIND       PRES   REMARKS
MANISTIQUE     MOCLDY    28  25  88 S10G20    30.18F
ESCANABA       CLEAR     30  23  74 S9        30.16F
MENOMINEE      PTCLDY    30  21  69 S10       30.17S
SAWYER-GWINN   CLEAR     28  16  59 S13       30.08F
$$
MIZ001>003-009>011-084-290300-
WESTERN UPPER MICHIGAN

CITY           SKY/WX    TMP DP  RH WIND       PRES   REMARKS
IRON MOUNTAIN  MOCLDY    32   9  38 S3        30.09S
HOUGHTON       MOCLDY    25  12  58 E5        30.02F
COPPER HARBOR    N/A     26  15  63 VRB5      30.05F
IRONWOOD       MOCLDY    36  10  35 S7        29.99F
$$

ABBREVIATIONS USED IN REMARKS
   TC - TEMPERATURE IN CELSIUS
  WCI - WIND CHILL INDEX
   HX - HEAT INDEX
  VSB - VISIBILITY



USA.gov is the U.S. government's official web portal to all federal, state and local government web resources and services.